Terminal Aerodrome Forecast
Issued by NWS Knoxville/Tri Cities, TN

Home | Current Version | Previous Version | Text Only | Print | Product List | Glossary On
Versions: 1 2 3 4 5 6 7 8 9 10 11 12 13 14 15 16 17 18 19 20 21 22 23 24 25 26 27 28 29 30 31 32 33 34 35 36
000
FTUS44 KMRX 011139 AAA
TAFTRI
TAF AMD
KTRI 011139Z 0112/0212 00000KT 1 1/2SM BR SCT004
      TEMPO 0112/0114 1/4SM FG BKN004
     FM011500 25003KT P6SM FEW250
     FM020600 00000KT 5SM BR SKC
     FM020900 00000KT 2SM BR SKC=

USA.gov is the U.S. government's official web portal to all federal, state and local government web resources and services.